Theta_e
315 314 312 311 310 310 310 310 310 310 309 309 309 309 309 309 308 308 307 307 307 306 305 305 305 305 306 306 305 305 305 305 305 305 305 305 305 305 305 305 305 304 304 303 303 303 304 306 308 310 313 316 319 319 319 319 320 319 319 320 322 323 325 326 327 326 324 324 325 325 325 325 325 325 325 325 325 325 325 324 324 324 324 324 325
313 312 312 311 310 310 310 310 310 310 309 309 309 309 309 309 308 307 307 307 306 305 305 304 305 305 305 306 306 305 305 305 305 306 305 305 305 305 304 304 304 304 304 304 304 304 304 304 306 309 311 314 317 319 320 320 320 319 319 319 320 319 322 324 326 326 325 324 325 325 326 325 324 324 325 326 325 324 324 324 324 324 324 325 325
313 312 312 311 311 310 310 310 310 310 309 309 309 309 309 308 308 307 307 306 306 305 304 304 305 305 305 305 306 306 305 305 305 305 305 305 305 304 304 304 304 304 304 304 305 305 305 305 304 305 309 312 314 316 319 320 320 320 319 320 319 319 319 321 323 325 326 325 325 325 326 326 325 324 325 326 326 325 325 324 324 324 325 325 326
314 313 313 312 311 311 310 310 310 310 309 309 309 308 308 308 308 307 306 305 305 304 304 304 305 305 305 306 306 306 305 305 305 305 305 305 305 304 304 304 304 304 304 304 305 305 305 306 306 305 306 308 311 313 316 319 320 320 320 321 321 320 319 320 321 323 324 325 324 325 326 326 326 326 325 325 326 327 326 325 325 325 325 326 326
314 314 314 313 312 311 310 310 310 309 309 309 309 308 308 308 307 306 305 304 304 304 304 304 304 305 305 305 305 305 305 305 305 305 305 304 304 304 304 304 304 304 304 304 304 304 304 304 306 307 306 306 307 309 313 316 319 320 320 321 322 322 321 321 321 321 323 324 325 326 326 327 327 326 325 325 325 327 327 327 326 326 326 326 326
314 314 314 314 312 311 311 310 310 310 309 309 309 309 308 307 306 305 304 304 304 304 304 304 304 304 304 304 305 305 305 305 305 305 304 304 304 304 304 304 304 304 304 304 303 304 303 303 304 306 306 306 307 307 309 313 316 318 319 320 321 321 322 322 322 322 323 323 324 326 327 327 327 326 326 325 325 326 327 327 327 327 326 326 326
315 314 315 315 313 312 311 310 310 310 310 309 309 308 308 306 305 304 304 304 304 304 304 304 304 303 303 304 304 304 304 304 304 304 304 304 304 304 304 304 304 303 303 303 303 303 303 303 303 304 304 305 306 307 308 310 312 315 317 318 319 319 320 321 322 323 323 322 322 323 326 327 326 326 326 325 325 326 326 326 326 327 326 326 325
316 315 316 315 313 312 311 311 311 310 310 309 309 308 306 305 304 304 304 304 303 304 303 303 303 303 303 303 303 303 303 303 303 303 303 303 303 303 303 303 303 303 303 303 303 303 303 303 303 303 303 304 304 305 307 308 309 312 314 316 316 317 318 319 321 322 324 324 322 321 324 325 325 326 326 325 325 325 325 325 326 326 326 325 324
316 316 315 315 314 312 312 312 311 311 310 310 309 307 305 304 304 304 304 303 303 303 303 303 303 303 303 303 302 302 302 302 302 302 302 302 302 303 303 303 303 303 303 303 302 303 303 303 303 303 303 303 303 304 305 305 306 308 312 314 315 315 317 318 319 320 322 324 324 323 323 324 324 325 325 325 325 324 324 324 324 325 325 324 323
316 316 316 315 314 313 313 312 312 311 310 309 308 307 305 304 304 304 304 303 303 303 303 303 303 303 302 302 302 302 302 301 300 300 300 301 301 302 302 302 302 302 303 302 302 302 302 302 302 302 302 303 303 303 303 304 304 305 307 310 313 314 315 317 318 319 319 321 324 324 324 324 324 325 325 325 325 324 324 323 323 324 324 323 323
317 316 316 315 314 313 313 313 312 311 310 310 308 306 305 304 304 304 304 303 303 303 303 303 303 302 302 302 302 301 301 301 300 299 299 299 300 300 301 301 301 301 302 302 301 302 301 301 301 301 301 301 301 301 301 302 303 304 305 307 309 312 313 314 316 317 317 318 320 322 323 324 324 324 324 325 325 324 324 323 322 323 323 323 323
319 317 316 315 314 314 313 313 312 311 310 309 308 305 305 305 304 304 304 304 303 303 302 302 302 302 302 302 301 301 301 300 299 298 299 299 299 299 299 299 299 299 300 300 300 300 300 300 300 300 300 300 300 300 300 300 301 302 304 305 306 309 311 312 313 315 316 316 317 319 321 322 323 323 324 324 324 324 324 323 322 322 322 322 323
318 317 315 315 314 314 313 312 311 310 309 308 306 306 305 305 304 304 304 303 302 302 302 302 302 302 301 301 301 301 300 299 298 298 299 299 298 298 298 298 298 298 298 299 299 299 299 299 299 299 299 299 299 299 300 299 299 300 302 303 305 306 308 310 312 313 315 315 315 317 318 319 321 323 323 324 324 324 323 323 322 321 321 321 322
317 316 315 314 314 313 312 311 310 309 308 307 306 306 305 305 304 304 303 302 302 302 302 302 302 301 301 301 300 300 299 298 298 298 298 298 298 298 298 298 298 297 297 297 297 297 297 297 298 298 298 298 298 299 299 299 299 299 300 301 303 305 307 308 310 312 313 314 314 316 317 317 319 321 322 322 323 324 324 323 323 322 321 321 320
315 314 314 314 313 312 311 310 309 309 308 306 306 305 305 305 304 304 303 303 302 302 302 302 301 301 300 300 299 299 298 297 298 298 298 298 298 298 298 298 297 297 297 297 297 297 296 297 297 297 297 297 297 298 298 298 298 298 299 299 301 304 307 308 310 311 312 313 313 314 315 316 317 319 321 321 321 323 323 323 323 323 321 320 319
312 312 313 312 311 311 310 309 309 308 306 305 305 305 305 304 304 303 303 303 302 302 301 301 300 300 299 299 298 297 297 297 297 297 297 297 297 297 297 297 296 296 296 296 296 295 295 295 295 296 296 296 297 297 297 297 298 298 298 298 299 302 304 307 309 311 312 314 314 314 314 315 316 317 319 320 320 321 321 320 320 321 320 318 318
310 311 311 310 310 310 310 309 308 306 305 304 305 305 304 304 303 303 303 302 302 301 300 299 299 299 298 297 296 296 296 296 296 296 296 296 296 296 296 296 295 295 295 295 294 294 294 294 294 295 295 296 296 296 297 297 297 297 297 298 298 300 302 305 308 311 313 314 315 315 315 315 316 316 317 318 318 319 319 317 316 317 318 317 317
309 310 310 310 310 309 309 308 306 304 304 305 305 304 304 303 303 303 302 301 300 299 298 298 298 297 296 296 295 295 295 295 295 295 295 295 294 295 295 295 294 294 294 294 294 294 294 294 294 295 295 295 295 296 296 297 297 297 297 298 297 298 300 302 305 309 312 314 315 316 316 316 317 316 317 317 316 317 319 319 317 317 317 316 317
309 310 310 309 309 309 308 306 304 304 304 304 304 303 303 302 302 301 300 299 298 298 298 297 296 295 294 294 294 294 294 294 294 294 294 294 294 294 294 294 294 293 294 294 294 294 294 294 295 295 295 295 295 295 296 296 296 297 297 297 298 298 299 300 302 306 310 312 314 316 317 317 318 318 319 319 318 317 318 319 320 318 317 317 317
310 310 309 309 308 307 306 304 303 303 303 303 302 302 301 300 300 299 299 298 298 298 297 295 294 294 294 294 293 294 294 294 294 294 294 293 293 293 293 293 293 293 293 293 293 294 294 294 294 294 294 294 295 295 296 296 296 296 297 297 297 297 298 299 300 303 306 310 313 315 317 318 319 319 320 320 320 319 318 319 320 320 319 319 318
309 309 308 307 306 305 303 303 303 303 303 301 300 300 299 299 299 299 299 299 299 298 296 294 294 294 294 293 293 293 294 294 294 294 293 293 293 292 292 292 292 292 293 293 293 293 294 294 294 294 294 294 294 295 295 296 296 296 296 297 297 297 297 298 299 301 304 308 312 314 316 317 318 319 320 320 321 320 319 319 319 320 320 320 319
308 307 306 305 305 303 302 303 303 302 301 300 299 299 299 299 299 299 299 298 298 297 296 295 295 295 294 293 293 293 294 294 294 294 293 293 292 292 292 292 292 292 292 292 292 293 293 293 294 294 294 294 294 294 295 295 296 296 296 296 297 297 297 298 298 300 302 306 310 313 315 317 317 318 320 321 321 321 320 320 320 320 320 320 320
306 306 305 304 303 302 301 301 301 300 300 299 299 298 298 298 298 298 298 298 298 297 296 295 295 294 294 293 293 293 294 294 294 293 293 293 292 292 292 292 292 292 291 291 292 292 293 293 293 294 294 294 294 294 294 295 295 296 296 296 296 297 297 298 298 299 300 303 307 311 314 315 315 316 319 321 321 321 321 321 321 321 320 319 319
305 304 303 302 301 301 301 301 300 300 299 299 298 298 298 298 298 298 298 297 297 296 296 295 294 294 293 292 292 293 294 294 293 293 293 292 292 292 292 292 292 292 291 291 292 293 293 293 294 294 294 294 294 294 294 294 295 295 295 296 296 297 297 298 298 299 299 301 305 309 313 314 314 315 317 320 320 321 322 321 321 320 319 318 317
304 303 302 302 301 301 301 300 299 299 299 298 298 298 298 298 298 297 297 296 296 296 295 295 294 293 292 292 292 293 294 293 293 293 293 292 292 292 291 291 291 291 291 292 292 293 293 294 294 295 295 295 295 295 295 294 295 295 295 296 296 296 297 298 299 299 300 301 304 308 312 314 314 315 317 319 320 320 321 321 320 319 318 317 316
304 303 302 301 301 300 300 299 299 299 299 299 299 299 298 298 297 297 296 296 296 295 295 294 294 293 291 291 292 293 293 293 292 292 292 292 291 291 291 291 291 292 292 292 293 294 294 295 296 296 297 297 297 296 296 296 296 296 296 296 296 297 298 298 299 299 300 301 303 307 311 313 313 315 317 319 320 320 320 320 320 319 318 317 316
303 302 301 301 300 299 299 299 299 299 299 299 299 299 298 297 297 296 296 296 295 295 295 294 294 292 291 291 293 293 292 292 291 291 291 291 291 291 290 290 291 292 292 293 293 294 295 295 296 297 297 298 298 298 298 297 297 297 297 297 297 297 298 299 299 299 301 302 303 306 310 311 312 314 317 319 320 320 319 320 320 320 318 317 315
302 301 300 300 300 299 299 299 299 299 299 299 299 299 298 297 296 296 296 295 295 295 294 294 294 292 291 291 293 292 292 291 291 290 291 291 291 290 290 290 291 291 292 293 294 294 295 295 296 297 298 299 299 298 298 298 298 298 298 297 298 298 299 299 299 300 301 303 304 306 308 310 312 314 317 319 320 320 319 319 319 320 318 317 314
301 301 300 300 300 300 300 300 299 299 299 299 299 299 298 297 296 296 296 294 294 294 294 295 294 292 291 292 292 292 291 291 290 291 290 290 290 290 290 290 290 291 293 293 294 294 295 296 297 298 299 299 299 299 299 299 299 299 299 298 298 298 299 300 301 302 303 304 305 306 308 310 312 314 316 318 319 320 319 319 318 317 316 315 314
301 301 300 300 300 300 300 300 300 299 299 299 299 298 298 297 297 296 295 294 293 294 294 294 293 291 291 292 292 291 291 291 290 290 290 290 290 290 290 290 291 292 293 294 294 295 296 296 297 298 299 300 300 299 299 299 299 299 299 299 299 299 299 300 302 303 304 305 306 307 309 310 312 314 316 318 319 319 318 318 317 316 315 314 313
301 301 301 301 301 300 300 300 300 300 299 299 298 298 298 297 297 296 294 293 293 294 294 294 292 290 291 292 292 292 291 291 290 290 290 290 290 290 290 291 292 293 294 294 295 296 296 297 298 299 300 300 300 299 299 300 300 301 301 301 301 300 300 301 302 303 305 306 307 308 309 311 312 314 316 318 318 318 316 316 315 313 313 313 312
301 301 301 301 301 301 300 300 300 300 299 299 298 298 297 297 296 295 294 293 294 294 294 292 291 290 290 291 292 292 291 291 290 290 291 290 290 290 290 291 292 293 294 295 295 296 297 298 299 300 300 300 300 301 301 301 302 302 302 302 303 302 302 303 304 306 307 308 308 309 311 312 312 314 315 317 317 317 316 315 313 311 310 310 310
301 301 301 301 301 301 301 300 300 300 299 298 298 298 298 297 296 294 293 293 294 294 293 291 291 290 290 291 291 292 292 291 290 291 291 290 290 290 290 291 292 293 294 295 296 296 298 299 299 300 300 300 301 302 302 303 303 303 304 304 304 304 305 306 306 307 309 309 310 311 312 312 312 313 315 316 316 316 315 313 311 310 308 308 308
301 301 301 301 301 301 300 300 300 300 299 298 298 298 297 297 295 293 293 294 295 294 293 292 290 290 290 290 291 292 292 291 291 291 290 290 290 290 290 291 292 293 294 294 295 296 297 298 299 299 300 300 301 302 303 304 304 305 305 305 305 305 306 307 306 307 309 310 311 312 312 312 312 313 315 315 314 314 313 312 310 308 307 306 306
302 301 301 301 300 300 300 300 300 300 299 298 298 298 297 296 294 293 293 294 294 294 294 293 291 289 290 290 290 291 292 291 291 291 290 290 290 290 290 291 292 292 293 294 295 295 296 297 298 299 300 300 301 303 303 304 305 305 305 305 305 305 306 307 308 308 309 310 312 312 312 311 311 313 315 315 313 313 312 310 308 306 305 305 304
301 301 301 300 300 300 300 300 300 300 299 298 298 298 296 295 295 294 294 294 294 294 294 293 291 290 290 290 290 291 292 291 291 291 290 290 290 289 290 290 290 291 292 292 293 294 295 296 297 298 299 300 301 302 303 303 304 304 304 304 304 305 307 308 309 310 310 311 312 312 310 310 311 313 314 313 312 311 310 308 305 304 303 303 302
301 301 300 300 300 300 300 300 300 300 299 298 298 298 296 295 295 295 295 295 295 295 294 292 291 290 290 289 290 291 291 291 291 291 290 290 290 289 289 289 290 290 291 291 292 293 294 295 295 296 297 298 299 301 302 302 303 303 304 303 304 305 306 308 309 311 311 311 311 310 310 311 312 313 312 311 309 308 307 305 303 302 301 302 301
301 300 300 300 300 301 301 301 300 300 299 298 298 297 296 295 295 296 296 295 295 295 294 293 292 291 290 289 290 291 291 291 291 291 291 290 290 289 289 289 289 290 290 291 291 292 293 294 294 295 296 297 298 299 300 301 302 303 303 303 303 304 305 306 307 309 310 311 311 310 309 310 311 311 310 309 307 305 303 302 301 300 299 299 298
301 301 301 301 301 301 301 301 301 300 299 298 298 297 296 296 296 296 296 296 295 295 294 294 293 293 291 289 289 291 291 291 291 291 291 290 290 289 288 288 289 289 289 290 291 291 292 293 293 294 295 296 296 297 298 300 301 302 303 303 303 303 304 305 305 306 307 308 308 308 307 308 308 307 306 305 304 302 301 300 299 298 297 296 295
301 301 301 301 301 301 301 301 301 300 299 298 298 297 296 296 296 296 296 296 295 295 295 294 294 294 292 290 289 290 291 291 291 291 291 290 290 289 288 288 288 289 289 289 290 290 291 292 293 293 294 295 295 296 297 298 299 300 301 302 303 303 303 303 303 303 303 304 305 305 305 304 304 302 301 301 301 300 299 297 296 296 295 294 293
302 302 302 302 301 301 301 301 299 299 299 298 298 297 297 296 296 296 296 296 295 295 295 295 294 294 294 292 290 290 291 292 291 291 291 290 290 289 288 288 288 288 288 289 289 290 290 291 292 292 293 294 294 295 295 296 297 298 299 300 301 302 302 301 300 301 301 301 302 302 301 301 301 300 298 298 298 297 296 295 295 295 295 293 291
302 302 302 302 302 302 301 300 299 299 299 298 297 297 297 297 297 297 296 296 296 295 295 295 294 294 294 293 291 290 291 291 291 291 291 291 290 290 289 288 288 288 288 288 289 289 290 291 291 292 292 293 293 294 294 295 296 297 298 298 299 300 300 299 299 299 299 299 299 299 298 298 298 298 297 296 295 294 294 294 295 295 294 292 291
302 301 301 301 301 301 301 300 299 299 298 298 297 297 297 297 297 297 296 296 296 296 295 295 295 294 294 294 292 290 290 291 292 291 291 291 290 290 289 288 288 288 288 288 288 289 289 290 290 291 291 292 292 293 293 294 294 295 296 297 297 297 298 297 297 296 297 296 296 295 295 295 295 295 294 293 293 293 294 295 294 293 292 291 291
301 301 301 301 300 300 300 300 299 298 297 297 298 298 298 298 298 297 297 297 297 296 295 295 295 294 294 294 293 291 290 291 291 291 291 291 291 290 289 289 288 288 288 288 288 288 289 289 290 290 291 291 292 292 292 293 293 294 294 295 295 295 296 295 295 295 295 294 293 293 293 293 293 293 293 293 293 294 294 294 292 291 291 291 291
301 301 301 301 300 300 300 300 299 298 297 297 298 298 298 298 298 298 298 297 297 296 295 295 295 295 294 294 294 292 290 290 291 292 291 291 291 291 290 289 289 288 288 288 288 288 289 289 289 290 290 290 291 291 292 292 292 292 293 293 294 294 293 293 293 293 293 293 292 292 291 292 292 292 293 293 293 293 292 291 291 291 290 290 291
301 301 300 300 300 300 300 300 299 298 298 298 298 298 298 298 298 298 298 298 297 296 295 295 295 295 294 294 294 293 291 290 291 292 292 291 291 291 291 290 289 289 288 288 288 288 288 289 289 289 289 290 290 290 291 291 291 291 292 292 292 292 292 291 291 291 291 291 291 291 291 292 292 292 292 291 291 291 291 290 290 290 290 291 292
301 300 300 300 300 300 300 300 299 298 298 298 298 298 298 298 297 297 297 297 297 297 296 295 295 295 294 294 294 294 292 291 291 291 291 291 291 291 291 291 290 289 289 288 288 288 288 289 289 289 289 289 289 290 290 290 290 290 291 291 291 291 290 290 290 290 290 291 291 291 292 292 292 291 291 291 290 290 290 290 290 291 292 293 294
300 300 300 300 300 300 300 300 299 299 298 298 298 298 298 297 297 297 297 297 297 297 297 296 296 295 294 294 294 294 293 292 292 291 291 291 292 292 291 291 291 290 290 289 289 288 288 288 289 289 289 289 289 289 289 289 289 289 289 290 290 290 290 290 290 290 290 291 291 291 292 291 291 291 291 291 291 291 291 291 293 293 293 293 293
299 299 299 299 299 299 299 299 299 299 298 298 297 297 297 297 297 297 297 297 297 297 297 296 296 295 295 294 294 294 293 293 292 292 291 292 292 292 292 291 291 291 290 290 289 289 289 289 289 289 289 289 289 289 289 289 289 289 289 289 289 289 290 290 290 290 291 291 291 292 292 292 291 291 291 292 292 292 293 293 293 293 292 292 291
299 299 299 299 298 298 298 298 298 298 298 297 296 296 296 297 297 297 297 297 297 297 297 296 296 296 295 295 294 294 293 293 292 292 291 291 292 292 292 291 291 291 291 291 290 290 290 289 289 289 289 289 289 289 289 289 289 289 289 289 289 289 290 290 290 291 291 291 291 292 292 292 292 291 291 292 292 293 293 292 292 291 291 291 291
297 298 298 298 298 298 298 298 297 297 297 297 297 296 296 296 297 297 297 297 298 297 297 296 296 295 295 295 294 294 293 293 293 292 292 291 291 292 292 292 292 291 291 291 291 291 290 290 290 290 290 289 289 289 289 289 289 289 289 289 290 290 290 290 290 291 291 291 291 291 291 291 291 292 292 292 292 292 292 292 291 290 290 290 291
Wind_Speed
26 25 23 20 18 16 14 13 12 12 13 14 15 15 15 16 16 16 17 18 18 18 18 18 18 19 19 21 23 23 23 23 22 22 22 24 25 25 26 26 25 25 24 23 23 25 28 28 28 27 27 27 26 25 26 28 29 30 30 31 32 33 34 36 36 39 40 37 35 36 35 34 33 32 30 31 32 34 37 38 35 33 32 30 29
27 27 25 22 20 18 15 14 13 13 14 15 16 16 16 16 16 17 17 17 18 17 18 18 18 19 20 22 24 24 23 23 22 22 23 25 27 27 27 26 25 25 25 25 23 23 24 27 29 29 28 28 28 27 26 26 27 28 29 30 33 34 34 36 36 38 40 39 36 36 36 34 35 34 30 29 32 35 38 39 37 34 33 32 31
30 29 27 24 22 19 17 16 15 15 15 16 16 16 16 16 16 17 17 17 17 17 18 18 18 19 22 24 24 24 24 24 23 23 24 26 28 28 27 26 25 26 26 26 25 24 24 24 27 29 29 29 31 31 29 27 26 27 29 29 32 34 34 35 36 36 39 41 38 36 36 35 36 36 32 29 32 36 39 40 39 36 34 33 33
31 30 28 26 23 20 19 17 17 17 16 16 17 16 16 16 16 17 16 16 16 17 18 18 19 20 22 23 25 25 25 25 25 25 25 26 27 27 26 25 25 26 26 27 26 25 25 25 24 26 28 29 30 31 32 31 28 26 27 28 30 33 33 33 33 35 38 40 38 36 36 35 35 34 33 32 32 34 38 39 39 37 36 35 34
31 31 30 28 25 22 21 19 19 18 18 17 17 17 17 16 16 16 15 15 16 17 18 19 20 21 22 23 25 25 25 25 25 25 25 25 26 26 26 25 26 27 27 28 28 27 27 27 27 25 26 28 30 30 31 33 32 30 27 26 27 30 33 33 32 33 35 38 39 37 35 35 34 33 33 33 33 33 36 38 39 39 37 36 35
32 32 32 30 27 24 22 21 20 19 19 18 18 17 16 16 15 15 14 15 16 17 18 20 21 23 24 25 25 25 25 25 26 26 27 26 26 26 26 27 27 28 29 29 30 29 29 29 29 28 27 27 29 29 30 31 33 34 32 29 26 26 29 32 33 33 35 36 38 37 36 35 36 35 34 35 35 36 37 38 38 37 37 36 36
34 33 33 30 27 25 24 22 20 19 18 18 17 16 15 15 14 13 14 15 16 17 19 20 22 23 25 25 26 26 26 26 26 27 27 27 27 27 28 28 29 29 30 30 30 31 31 30 30 29 28 28 28 29 30 31 33 35 34 33 31 29 29 30 32 34 36 37 36 36 37 38 38 37 36 36 36 36 37 39 39 38 38 38 37
35 34 33 31 28 26 24 22 20 19 18 17 16 16 15 14 13 13 14 15 16 17 19 20 22 23 24 25 26 26 26 26 26 26 26 27 27 28 28 29 30 30 30 30 30 30 30 30 30 30 29 29 30 30 30 31 33 36 36 35 34 33 31 30 30 32 35 37 37 36 37 38 37 36 36 37 38 37 38 39 40 42 43 40 37
36 34 32 31 28 26 24 22 19 18 17 17 17 15 14 13 13 13 14 15 16 18 19 20 21 22 24 25 26 27 27 28 28 27 27 27 27 28 29 30 31 32 33 33 33 32 32 32 31 31 30 30 30 31 31 32 33 35 38 38 37 36 34 32 30 29 30 33 35 36 38 38 36 36 37 38 38 38 39 39 39 41 43 40 35
35 33 32 30 28 25 23 21 19 18 18 18 17 15 14 13 12 13 14 15 17 19 19 20 22 23 24 25 27 28 29 29 29 28 27 27 28 29 30 31 32 33 34 35 36 36 37 37 37 36 35 33 33 33 34 33 33 34 36 38 40 40 38 38 36 33 31 30 30 32 36 38 39 40 41 40 39 39 40 41 41 41 42 41 37
34 33 31 29 27 24 22 21 19 19 19 18 17 15 13 12 12 13 15 16 18 19 20 20 21 22 24 26 28 30 31 31 31 30 28 27 28 30 32 34 35 36 36 37 38 39 39 39 39 40 40 39 38 38 38 37 35 34 33 35 40 42 43 43 43 41 39 36 34 32 32 34 36 39 40 40 41 42 41 43 44 45 47 45 43
33 31 30 28 27 25 22 21 20 19 19 18 15 13 11 12 13 15 16 17 19 19 19 20 21 23 26 28 29 31 32 33 32 30 29 28 28 29 31 32 34 35 37 39 40 41 41 41 41 41 41 41 41 40 40 40 39 37 35 34 35 40 44 45 46 47 45 44 43 39 36 34 32 34 38 40 42 43 43 44 46 48 50 49 48
30 29 29 28 26 24 22 21 20 19 18 15 12 11 12 13 15 16 18 19 19 18 18 20 22 25 27 29 30 32 33 33 30 28 28 28 28 29 30 31 33 34 36 38 39 41 41 42 42 42 42 41 41 42 42 41 40 40 38 35 34 35 39 44 48 50 49 48 49 48 46 41 37 35 36 39 43 44 45 46 48 49 51 51 51
28 27 27 27 25 23 21 20 19 17 14 12 11 12 14 15 16 17 19 19 17 17 19 21 24 26 28 30 32 33 32 31 30 29 29 29 29 29 31 33 35 36 37 38 39 40 41 41 43 43 43 42 42 42 42 42 41 40 39 37 35 33 33 37 42 47 50 51 52 53 52 48 44 40 37 37 42 46 46 48 50 51 52 52 52
28 27 26 25 23 21 19 18 16 14 12 12 13 14 14 15 17 18 18 16 16 17 20 23 26 28 29 30 31 33 32 31 30 29 29 30 30 32 33 35 38 39 40 40 41 41 42 42 43 43 43 43 42 41 41 41 42 42 43 42 40 36 33 33 34 36 41 46 50 53 54 52 50 46 41 39 41 44 47 49 49 50 52 52 52
27 26 26 23 21 19 18 18 16 13 12 12 13 14 15 15 17 17 16 15 17 20 23 26 28 30 30 31 32 33 32 31 30 30 30 31 33 34 36 38 39 40 40 40 40 41 42 42 43 43 44 44 43 41 40 40 42 44 46 46 44 41 39 38 34 31 32 35 40 44 48 50 51 50 48 46 43 41 45 49 49 49 51 51 51
26 27 26 23 21 20 19 17 14 11 11 12 13 14 14 15 15 15 16 18 21 24 26 27 28 29 31 33 33 32 31 30 30 30 31 32 33 34 36 37 37 37 38 39 40 42 43 43 43 44 44 44 43 41 40 40 41 43 45 46 46 45 43 42 38 34 31 31 32 36 39 41 43 45 49 51 48 43 43 48 50 49 50 50 50
27 29 28 24 22 20 18 15 11 9 10 11 12 13 13 14 15 17 20 22 24 24 25 26 27 28 29 30 30 30 30 30 30 31 31 30 31 32 33 35 36 37 39 40 41 42 43 43 43 43 44 44 42 41 41 41 41 43 43 44 46 47 45 41 40 38 35 32 32 33 35 36 36 37 41 45 47 46 45 46 46 49 51 51 49
30 31 28 24 22 19 15 11 9 10 11 12 13 13 15 16 18 20 22 22 22 22 24 26 27 27 29 31 32 31 32 31 31 32 32 32 31 31 33 35 37 39 40 41 42 42 42 42 42 42 43 43 42 40 40 41 42 43 43 43 47 50 46 40 38 40 38 35 33 33 33 33 34 35 37 38 41 46 48 47 44 46 50 51 49
31 28 24 23 21 17 13 10 9 10 10 11 12 13 14 15 17 18 19 19 20 22 24 26 26 27 30 34 35 35 35 34 33 32 32 33 33 33 34 36 38 39 40 42 43 43 42 42 43 44 44 43 42 41 40 40 41 42 42 45 49 50 45 39 37 40 39 35 32 33 34 32 32 35 38 38 39 42 46 48 47 44 46 49 51
30 26 24 24 20 14 10 8 8 7 8 9 9 10 11 12 14 16 18 19 21 23 25 27 27 29 31 35 38 39 38 37 35 33 32 33 33 33 34 36 37 39 42 43 43 44 43 43 44 44 44 43 42 41 40 40 40 40 42 45 48 47 44 41 39 38 39 37 32 30 33 33 32 34 37 39 40 42 43 47 48 46 44 47 49
28 26 24 21 15 10 7 6 5 5 6 7 9 11 11 13 15 17 18 20 21 24 27 29 29 30 32 36 40 42 40 37 36 34 33 33 32 32 33 36 37 39 42 43 43 43 43 44 44 44 43 42 41 41 41 40 39 41 43 44 44 42 42 42 40 36 38 43 39 31 31 31 29 32 36 38 39 41 43 44 46 45 44 45 45
25 23 19 14 11 7 5 2 2 3 5 7 9 10 12 13 16 17 18 20 23 26 28 28 29 31 33 38 42 43 40 37 35 35 34 33 32 32 33 35 35 36 39 42 43 43 44 45 45 45 43 42 41 42 42 42 42 43 43 42 42 40 39 40 40 37 37 43 45 38 32 29 27 31 36 37 37 40 43 43 44 45 45 45 45
21 17 14 10 7 4 3 2 0 2 4 6 7 9 11 12 14 16 18 21 25 26 26 27 28 31 36 42 45 43 39 36 35 34 34 34 34 34 34 34 34 35 38 41 42 43 44 44 44 43 43 42 42 42 43 43 43 44 43 42 40 40 38 38 39 38 36 41 47 44 35 28 27 30 34 36 37 41 43 43 44 46 46 45 46
15 12 10 8 7 4 4 5 2 0 2 5 7 9 10 10 12 15 20 23 24 24 25 26 28 32 39 45 46 42 39 37 36 36 35 35 36 36 36 36 36 36 38 40 40 41 42 42 41 40 41 42 43 43 44 44 44 42 41 40 39 38 38 38 38 38 37 40 46 46 37 28 26 29 33 35 37 40 42 41 43 45 45 45 45
10 10 10 9 8 7 6 4 2 2 5 6 6 7 9 10 13 17 20 22 22 22 25 27 29 34 42 46 45 42 40 39 38 38 37 38 38 39 39 39 37 37 38 39 38 38 38 38 38 37 38 39 41 42 43 43 42 41 39 39 39 39 38 38 39 40 39 38 43 45 37 28 25 30 36 37 37 38 39 40 42 43 44 45 46
12 12 12 11 9 6 5 3 2 2 5 5 4 7 12 13 13 16 18 19 21 23 25 27 29 37 45 46 44 42 41 39 39 39 39 40 41 41 41 40 39 38 38 38 37 36 37 36 35 35 34 34 35 37 37 38 38 39 37 36 36 37 38 38 40 41 39 35 38 42 37 28 26 34 39 38 36 37 37 38 40 41 43 45 46
15 14 13 11 7 4 5 4 3 3 3 3 5 10 14 12 11 15 18 20 22 23 24 26 30 38 45 45 43 42 41 40 39 39 39 40 41 41 41 42 41 39 38 36 35 35 36 36 35 34 33 31 31 32 33 34 35 36 35 33 33 34 34 35 36 38 36 32 33 37 35 29 28 35 40 38 36 36 36 36 38 41 43 45 44
13 12 14 11 6 6 6 5 3 2 3 5 7 13 16 13 11 16 20 21 22 22 24 26 31 38 43 42 41 42 42 40 38 37 38 38 38 39 40 40 40 38 35 33 32 34 35 34 34 33 32 31 31 31 32 33 34 34 33 32 32 33 34 33 33 33 31 29 31 34 33 30 31 37 39 36 34 34 34 36 39 41 42 43 43
11 12 14 9 6 7 8 6 2 2 5 7 9 14 17 14 14 17 20 21 21 22 25 27 32 38 41 40 38 40 41 39 36 35 36 36 37 37 37 36 35 33 30 28 28 30 31 31 32 30 29 30 31 30 30 30 31 31 31 31 33 35 36 35 33 30 28 29 31 32 31 30 34 38 37 34 32 33 35 37 38 40 41 43 42
13 13 12 6 5 6 7 4 1 5 8 9 11 15 14 12 14 19 20 21 21 23 26 28 31 36 39 39 39 40 39 36 34 34 35 35 35 35 34 33 30 28 26 25 25 27 28 29 28 24 23 24 24 23 22 23 25 25 25 26 30 33 35 36 34 29 28 30 32 31 30 31 34 38 37 33 32 34 35 37 38 39 40 41 42
14 11 8 5 4 5 5 4 4 6 9 11 12 12 9 9 16 21 20 20 22 24 26 28 31 34 38 39 40 42 40 35 32 33 33 33 34 33 31 29 27 25 24 24 23 24 25 25 23 18 15 15 15 14 14 16 18 20 21 24 28 30 31 32 31 29 30 32 32 31 30 31 35 38 37 33 32 34 36 37 38 38 38 38 39
13 9 8 7 7 7 7 6 5 7 11 12 12 10 8 12 19 22 21 20 22 25 27 28 30 34 37 39 41 43 40 35 32 33 32 32 32 31 28 26 23 21 22 21 20 20 20 20 19 16 13 12 10 10 10 12 14 17 19 22 24 23 22 25 28 32 34 34 32 31 31 34 38 40 37 34 33 34 35 36 36 36 36 37 36
9 7 8 8 7 5 6 6 6 8 11 10 8 8 11 17 22 23 22 22 23 25 27 28 30 33 37 39 42 44 41 35 33 33 33 31 30 28 25 23 19 16 17 18 16 16 16 16 16 15 13 12 10 9 10 11 13 16 17 18 18 17 17 22 28 33 34 34 32 32 33 37 40 41 38 35 34 34 34 35 35 35 36 36 36
4 4 5 6 4 2 6 8 8 8 8 6 5 8 15 21 23 22 22 22 24 26 28 29 30 33 36 38 42 44 42 36 33 34 33 32 30 27 24 23 22 20 19 18 17 15 14 13 13 12 11 11 11 10 10 12 13 14 15 14 16 19 22 27 31 32 32 32 32 33 35 38 40 39 36 34 34 34 34 35 35 35 36 36 37
3 2 3 5 3 2 7 9 9 8 7 5 5 10 16 21 23 21 20 21 23 26 27 28 30 32 35 36 40 44 43 38 34 34 34 32 30 28 26 25 25 23 21 20 19 17 15 12 11 10 9 9 9 10 11 11 12 13 14 15 18 23 29 33 33 32 31 31 32 34 36 39 39 36 33 32 32 33 34 35 35 35 34 34 35
4 5 6 5 1 5 9 9 9 7 6 5 7 11 16 19 21 21 21 21 23 24 25 27 30 33 35 36 37 42 45 41 36 35 36 33 31 29 27 25 24 23 21 20 19 18 17 14 11 9 8 7 7 7 8 10 11 13 14 16 20 25 31 35 36 33 32 32 33 34 37 39 38 35 32 32 33 33 33 33 33 33 32 32 34
6 6 5 1 6 8 8 8 8 7 6 7 9 13 16 17 19 22 23 22 22 22 23 26 30 34 36 37 36 39 44 45 40 38 38 36 34 31 29 26 24 23 21 20 18 17 16 15 13 10 8 6 5 5 6 7 10 13 15 16 19 24 28 33 36 36 35 34 35 37 39 40 37 34 32 32 32 33 32 33 33 34 34 35 37
2 1 3 7 8 7 7 8 7 5 5 7 10 13 16 16 17 21 23 22 20 20 22 25 30 33 35 36 35 37 42 46 44 39 38 37 34 31 29 27 25 23 22 20 18 17 15 14 13 11 8 5 4 3 3 5 8 12 15 16 18 22 26 30 34 36 37 38 39 40 40 39 36 34 33 32 32 32 33 33 34 36 38 39 38
3 4 6 7 6 6 9 10 6 3 4 7 8 11 13 14 16 19 21 21 19 20 22 24 27 32 34 34 33 34 39 44 44 39 36 35 34 31 29 27 25 24 23 21 18 16 14 13 11 10 7 5 2 0 2 4 6 10 14 16 19 22 24 27 29 31 33 35 37 38 37 36 35 34 33 33 33 34 35 37 37 38 38 38 37
4 4 5 5 4 6 8 7 7 8 7 7 7 9 11 12 13 17 20 19 18 19 22 24 26 29 32 33 32 32 35 40 43 40 35 33 33 32 28 26 25 23 22 21 19 16 14 12 10 8 7 4 2 2 3 5 7 10 14 17 20 22 23 24 26 28 29 31 32 33 34 33 34 34 34 34 35 36 38 38 38 37 38 39 39
6 7 6 5 4 6 5 6 10 10 9 7 7 9 11 11 12 14 17 19 19 19 21 24 26 28 31 33 33 32 33 36 41 42 38 33 33 32 29 25 24 23 22 20 19 16 14 11 9 7 6 5 4 5 6 9 10 12 15 17 19 22 23 24 25 26 28 29 31 32 33 33 33 35 36 37 38 38 38 37 37 37 38 38 38
8 9 9 9 8 6 5 8 9 9 8 9 10 11 11 12 13 13 14 16 19 19 21 24 26 28 30 33 33 33 32 34 38 43 41 36 33 32 30 26 24 23 21 20 18 16 13 11 9 8 7 7 7 7 9 11 13 14 16 18 20 22 23 25 25 26 28 31 32 33 34 35 36 37 39 39 39 38 37 36 36 36 35 35 35
6 7 8 11 13 12 10 10 9 8 9 9 9 10 11 13 15 14 12 13 16 18 20 24 26 26 29 32 33 33 33 32 35 40 42 39 35 32 30 27 25 23 21 19 17 15 12 11 10 10 9 9 9 9 11 13 15 16 18 19 22 24 25 26 28 29 30 33 34 35 36 37 38 39 40 40 39 38 37 36 36 36 35 34 33
10 9 8 9 11 11 10 8 8 8 8 6 6 8 11 12 14 15 16 16 16 17 20 24 25 24 27 31 33 33 33 31 32 36 40 40 37 33 30 28 25 22 20 19 17 15 13 12 12 11 11 11 11 12 13 14 16 17 19 20 23 25 27 28 30 31 32 34 36 37 39 39 39 39 39 39 38 37 36 35 35 35 34 32 30
9 11 11 11 10 8 7 7 7 6 4 3 5 8 9 10 12 15 16 17 16 16 18 22 23 23 24 27 30 33 33 31 30 33 37 39 39 35 31 28 26 23 20 18 17 16 15 14 13 12 12 12 12 13 14 15 16 18 20 22 24 26 28 30 31 32 34 36 38 39 39 39 39 39 39 39 38 37 35 34 34 34 32 30 28
7 7 8 7 6 5 6 7 7 6 3 2 5 7 8 9 11 14 15 14 13 13 14 16 18 19 20 23 26 30 32 31 29 30 33 36 38 37 33 29 27 25 22 19 17 18 18 16 15 13 13 13 13 14 15 17 18 19 21 23 25 27 28 30 32 33 35 36 37 38 39 39 40 39 39 38 37 36 35 35 34 33 31 29 26
4 4 4 3 3 2 3 3 5 5 4 3 5 6 7 8 11 14 15 14 13 10 10 11 14 16 17 18 21 25 29 30 30 30 30 32 34 36 35 31 28 26 25 22 19 18 18 18 16 15 14 13 14 14 16 18 20 21 23 24 25 26 27 28 30 32 34 35 36 37 37 38 38 37 36 34 34 34 35 35 34 31 29 26 23
4 4 5 6 6 4 3 2 2 2 3 4 5 6 6 8 11 14 16 16 14 12 11 11 12 14 15 16 17 21 25 27 27 28 29 29 30 33 35 33 30 27 25 24 23 21 20 19 19 18 17 16 15 15 16 18 19 22 23 24 24 24 25 26 28 30 31 31 32 33 33 34 34 33 32 33 34 34 34 33 31 28 25 24 22
5 7 7 8 9 9 8 7 5 4 3 4 5 6 8 9 11 14 16 17 17 15 14 12 12 12 13 14 15 18 21 23 22 23 24 25 27 28 31 32 32 29 26 23 23 22 22 22 22 21 21 20 19 18 18 18 19 20 21 21 22 22 23 24 25 25 26 27 29 30 30 31 31 31 32 33 33 33 32 30 27 25 23 22 21
7 7 7 7 8 9 9 9 9 8 6 6 6 7 9 10 12 13 15 16 17 17 16 14 12 12 11 11 12 14 17 20 20 18 18 20 23 24 26 28 30 30 28 25 23 21 22 23 23 23 23 22 22 22 22 21 21 20 20 20 20 21 22 22 23 23 24 25 26 27 28 29 31 32 32 32 30 29 28 26 25 23 22 21 20
Wind_Direction
228 228 225 227 236 241 246 251 254 256 253 251 253 256 259 261 264 269 274 281 289 294 298 303 310 314 314 313 313 313 312 310 309 306 301 297 293 289 287 285 284 283 281 277 270 263 260 258 255 251 249 248 249 252 257 261 266 267 265 265 265 263 260 257 255 260 265 264 263 262 258 257 256 253 253 251 243 238 239 238 237 237 239 239 235
225 225 225 228 236 241 245 250 253 255 254 251 251 252 254 259 263 268 275 283 290 295 301 308 312 312 311 310 309 309 307 305 304 301 299 297 295 293 289 285 282 282 282 280 278 273 266 260 257 254 249 246 245 246 250 255 262 266 265 264 264 264 262 259 256 259 264 265 264 261 255 252 253 253 253 251 242 235 235 234 232 234 239 239 236
224 224 225 229 234 238 241 246 250 253 254 254 253 251 253 257 261 268 277 284 290 297 305 310 310 307 306 305 304 304 303 300 295 292 290 290 292 291 290 289 285 284 284 284 283 282 277 270 263 258 254 250 246 243 245 250 256 261 264 264 262 262 264 263 259 259 264 265 263 261 257 251 251 252 251 247 240 234 232 231 231 235 238 237 235
224 225 226 229 231 233 238 242 246 249 252 254 254 253 254 257 262 271 279 285 293 302 307 307 304 300 298 298 297 297 297 295 292 289 286 287 289 291 292 292 291 290 290 290 290 288 284 280 273 265 260 258 253 247 243 245 249 255 263 267 265 260 260 263 263 261 263 263 262 263 262 256 252 251 249 246 241 236 233 232 232 236 238 236 234
222 225 226 227 228 230 235 239 243 247 248 251 253 253 255 259 264 272 279 287 297 303 305 304 301 298 295 292 290 289 289 289 290 290 289 288 289 290 292 293 292 292 291 290 290 289 286 283 280 275 270 265 260 254 247 245 246 249 255 265 272 267 260 259 263 264 263 261 260 263 262 257 252 249 248 246 242 236 233 232 232 233 234 233 234
221 224 225 225 226 230 233 237 240 243 245 247 249 252 255 259 264 271 281 290 297 301 303 304 302 299 295 290 285 283 282 283 285 286 287 288 289 289 289 289 289 289 289 288 287 286 285 283 281 280 279 275 268 262 254 249 248 250 251 255 266 274 269 263 260 262 262 261 261 260 257 254 251 247 245 245 243 238 233 231 228 228 230 232 235
218 222 223 222 225 229 232 236 238 240 242 245 247 249 251 255 263 274 285 291 298 303 304 302 299 296 293 289 285 281 280 280 281 283 284 286 288 289 288 286 286 286 286 287 287 287 286 285 284 282 279 277 273 267 260 254 251 251 252 254 259 267 273 270 264 261 260 262 264 262 256 253 250 246 243 242 241 239 236 233 230 228 229 231 234
216 219 221 222 225 228 230 233 234 237 240 242 244 246 248 256 267 277 288 297 303 305 301 298 298 296 293 290 287 284 283 283 284 283 284 287 289 290 290 289 288 287 286 286 285 286 287 288 288 287 284 281 278 274 268 261 256 251 249 251 256 260 266 270 270 265 259 258 261 264 259 252 246 242 237 233 231 231 233 236 237 235 232 229 230
214 217 220 222 224 225 226 228 229 233 237 239 242 246 250 260 272 283 294 302 304 301 300 300 300 297 293 291 290 290 289 289 287 283 281 283 286 288 288 287 287 286 284 283 282 282 282 282 283 284 285 285 284 283 278 272 267 259 250 248 250 254 256 259 265 268 263 257 257 260 258 253 250 243 233 227 231 237 237 235 233 235 236 232 231
213 215 219 221 222 221 222 224 226 228 232 236 241 246 254 264 277 290 297 300 301 301 301 300 297 295 293 293 292 292 292 292 292 289 284 281 280 281 281 281 281 281 281 281 281 280 279 278 277 276 275 274 276 278 279 278 275 269 259 252 250 252 252 251 253 258 264 264 261 260 258 254 253 247 237 236 240 243 241 236 229 230 233 232 231
210 212 215 217 217 217 218 221 224 226 229 234 238 246 256 270 283 291 293 295 300 301 297 293 290 289 290 291 292 293 294 295 296 295 292 287 282 280 278 277 277 276 277 279 280 280 280 280 280 279 277 275 274 274 274 275 275 273 268 259 252 252 253 253 251 251 256 261 262 263 263 259 252 243 238 240 240 238 240 239 234 231 231 230 229
208 209 211 212 212 213 215 218 220 223 227 231 239 250 262 275 283 286 289 292 295 295 290 286 285 285 287 289 291 293 295 296 296 296 296 294 291 289 286 285 282 279 277 277 278 279 280 280 281 281 281 281 280 279 276 274 272 270 270 266 258 253 251 252 253 252 252 255 257 256 258 262 259 246 240 241 239 236 237 239 238 235 233 233 231
207 206 207 207 206 209 212 214 217 221 227 235 246 259 267 274 279 281 285 291 294 294 289 286 284 285 287 290 292 294 295 296 297 298 298 297 296 295 294 293 291 287 283 281 280 280 280 281 280 279 279 280 280 280 280 280 277 273 270 268 264 259 253 250 251 251 251 254 257 254 252 256 261 258 253 248 242 236 234 234 237 238 236 235 236
203 203 204 203 203 206 210 214 217 222 229 240 252 261 266 271 275 281 288 294 296 291 285 283 283 285 290 294 296 297 297 296 296 297 298 297 297 295 294 292 290 289 287 286 285 284 283 283 281 279 278 277 277 278 279 280 280 278 273 267 262 262 260 255 252 252 251 252 255 255 252 251 254 257 260 256 245 240 241 241 241 241 239 236 235
199 202 205 204 203 205 208 211 214 219 230 245 255 259 263 269 276 284 291 291 284 279 278 280 285 289 294 297 299 299 298 295 293 293 293 293 292 291 289 287 287 286 286 286 286 285 285 285 283 281 279 277 275 275 275 276 277 277 275 270 263 257 254 254 252 253 255 254 255 256 255 253 251 251 256 257 249 245 247 247 245 242 238 234 232
196 199 202 201 198 199 202 204 209 219 236 249 254 256 262 272 279 282 281 274 271 274 281 287 293 296 298 301 303 301 297 293 290 289 288 288 288 287 287 287 287 286 286 286 286 286 285 284 282 281 280 278 276 275 274 274 274 274 273 273 269 260 251 247 245 245 250 255 257 258 257 256 253 251 251 254 253 247 240 236 236 236 234 232 232
189 193 196 193 190 193 198 204 213 229 246 251 254 260 266 271 271 268 267 269 275 283 290 295 299 301 304 307 307 302 297 294 292 290 289 289 289 288 288 287 287 288 288 289 290 289 288 285 283 281 279 277 276 275 274 273 272 272 271 271 271 266 255 247 243 241 241 246 252 255 257 257 256 254 252 253 256 252 238 229 228 230 230 229 231
185 189 190 187 189 197 203 210 223 236 244 247 251 257 261 263 266 269 273 279 285 292 297 301 305 310 315 318 315 310 304 301 299 297 295 294 292 290 288 288 288 289 291 292 292 291 290 287 284 281 279 277 276 273 272 271 270 269 268 267 268 267 261 252 245 243 242 243 245 248 252 254 256 256 254 253 254 252 243 235 233 233 232 231 232
184 186 187 189 195 203 207 215 229 233 235 242 249 257 264 270 275 278 281 287 292 298 305 310 314 320 327 330 328 323 317 312 308 303 299 296 293 290 288 287 288 290 293 294 295 294 291 288 284 281 279 278 277 275 271 268 266 264 264 264 264 265 265 260 251 246 247 249 247 245 248 252 253 255 255 253 251 249 247 245 242 239 237 236 235
181 181 181 185 189 194 199 211 225 231 241 252 263 273 279 281 283 286 289 293 296 302 314 323 325 327 330 332 332 330 324 319 315 310 305 300 296 292 290 290 291 294 295 297 297 295 292 289 285 282 280 278 276 275 272 268 264 262 261 259 259 261 264 264 256 247 245 249 250 246 246 249 252 252 252 251 248 245 244 244 244 243 241 239 238
171 171 172 174 178 183 189 198 214 235 258 274 290 302 304 299 296 296 294 293 296 306 320 328 328 327 329 331 331 330 326 320 316 311 307 303 299 295 293 292 294 296 296 296 296 293 292 289 286 284 282 279 277 275 273 269 265 262 259 256 257 260 262 264 263 255 245 243 245 245 244 248 255 255 251 248 245 241 240 240 241 242 242 239 239
164 167 168 168 174 181 181 190 221 257 286 311 325 328 321 308 299 294 291 293 301 312 322 326 326 325 327 328 328 329 325 319 315 312 309 306 304 300 296 295 295 296 295 295 294 293 291 290 288 286 284 280 277 274 272 270 267 263 261 259 260 261 261 262 266 264 250 240 241 244 242 245 257 261 253 245 242 240 238 237 237 239 240 241 243
161 161 160 160 165 167 162 175 259 303 326 333 334 331 322 305 294 291 293 298 309 317 322 324 325 325 325 327 328 328 325 320 317 315 313 312 310 306 301 298 298 297 295 294 294 294 293 291 289 287 285 280 275 270 267 266 265 263 262 262 261 261 261 261 263 265 257 245 241 243 242 242 256 263 255 247 243 240 237 236 235 234 235 237 240
150 147 146 147 140 118 105 128 167 328 332 336 341 340 330 310 295 295 302 310 316 320 322 323 324 325 327 329 330 328 325 322 320 318 317 316 313 310 306 304 303 301 297 296 296 295 293 292 290 288 285 280 274 268 263 262 261 262 262 262 261 258 258 258 258 260 259 249 241 240 240 240 249 258 257 252 246 238 233 232 232 230 230 232 234
140 137 138 131 113 111 158 179 192 0 16 -0 348 341 335 322 309 309 314 318 319 319 322 323 322 326 331 332 331 329 326 324 323 321 320 319 316 314 312 310 308 305 301 299 297 295 292 291 291 288 283 278 273 267 262 259 258 258 259 259 258 255 252 252 252 255 256 249 241 237 236 237 243 252 256 252 242 233 227 225 224 224 226 227 228
139 134 135 133 134 154 180 197 201 76 40 12 345 334 336 331 322 320 321 321 320 321 324 322 323 330 336 335 332 330 328 327 325 324 323 321 318 317 315 313 310 307 304 301 298 295 293 293 292 288 282 276 272 268 265 261 258 256 256 255 253 249 247 247 248 251 253 250 242 236 234 237 244 249 250 246 238 231 227 223 220 220 223 223 224
138 138 143 150 157 175 200 210 167 99 30 4 335 333 338 333 327 329 330 326 325 327 325 322 327 337 338 336 333 332 331 329 327 325 324 322 319 317 316 313 312 309 306 303 300 298 297 296 295 291 283 274 269 267 265 262 258 255 254 252 248 244 244 245 247 250 253 251 244 237 235 238 245 246 244 240 234 230 228 225 222 221 222 222 221
138 141 150 154 145 151 182 178 130 95 14 324 309 334 342 337 332 339 339 334 334 333 326 324 333 340 339 337 337 336 333 330 327 325 323 320 318 316 314 312 312 310 307 304 302 300 299 297 295 292 283 273 265 262 260 257 254 251 249 246 243 243 244 245 246 250 252 249 242 237 235 236 241 242 239 233 228 227 225 223 223 222 221 219 217
140 147 162 161 121 110 151 153 112 79 327 309 319 342 349 343 334 340 344 342 342 338 330 331 338 339 338 339 341 338 334 331 327 324 321 318 316 314 312 312 312 310 306 304 302 299 299 299 297 291 282 272 266 263 260 255 251 248 244 239 237 239 243 244 245 247 246 240 235 233 231 232 235 235 231 226 222 222 221 221 220 219 217 215 214
149 158 172 165 96 94 128 136 119 330 326 326 334 350 356 350 338 341 347 349 348 343 338 337 338 339 340 343 344 341 336 331 327 324 322 319 316 315 314 314 313 311 307 305 302 300 300 301 298 290 280 272 269 267 263 255 248 244 240 236 234 235 237 238 240 244 241 231 227 227 227 229 231 227 223 220 217 215 215 216 217 216 214 212 210
154 158 162 149 86 95 116 110 18 338 344 348 352 357 359 352 344 345 350 354 353 347 343 340 338 340 345 347 347 345 342 336 330 327 324 322 321 320 320 320 319 316 313 311 308 306 304 302 299 291 279 273 269 265 259 251 244 240 238 237 236 236 236 237 238 239 233 223 219 221 223 226 227 222 217 215 213 209 209 210 211 212 212 212 209
153 146 134 117 93 100 94 61 18 1 0 5 9 8 359 348 350 351 353 357 354 348 345 343 341 345 351 352 351 350 348 342 336 332 330 330 329 328 327 327 325 320 317 316 311 308 306 305 305 301 289 279 272 263 255 249 242 236 234 236 237 237 237 235 229 221 216 213 213 216 219 222 225 221 215 212 209 207 207 207 207 208 207 207 206
143 119 96 94 98 95 77 52 28 12 10 11 12 11 -0 351 352 354 359 0 354 349 348 347 346 349 354 356 356 354 352 348 342 339 338 338 337 335 334 334 330 323 320 319 314 308 308 310 311 308 300 291 280 267 260 254 247 244 245 246 246 244 238 227 213 206 206 208 210 214 217 219 219 216 212 209 207 207 206 204 204 205 203 200 198
130 95 88 102 107 90 54 33 11 3 9 10 3 359 359 356 355 358 3 1 352 349 352 352 351 352 355 358 359 358 356 352 349 347 347 347 345 343 340 340 341 338 334 331 325 318 316 317 314 307 298 294 289 275 263 256 254 256 257 255 252 247 234 219 209 204 204 205 209 214 218 217 215 211 206 203 202 204 205 203 202 201 199 196 193
120 98 115 136 138 57 24 21 10 2 6 10 359 0 6 7 6 7 7 0 352 352 355 355 354 355 357 359 1 1 359 357 354 354 356 355 352 351 351 352 355 355 352 349 345 338 331 324 317 311 301 294 290 281 270 263 262 264 263 254 243 233 222 211 205 202 202 204 210 215 215 212 208 206 203 202 201 202 203 201 199 196 193 189 186
98 118 175 188 187 5 4 8 14 15 17 25 18 7 9 13 15 14 12 5 360 359 359 356 356 359 1 1 2 2 2 1 0 1 2 2 1 1 2 360 357 355 354 354 352 348 345 338 324 314 306 296 289 282 274 268 264 261 253 241 231 222 212 204 200 200 202 206 211 214 211 206 202 201 202 202 202 202 201 198 194 190 187 184 181
136 146 157 160 102 5 360 7 20 26 32 40 22 5 3 7 10 12 13 8 1 360 1 360 360 2 4 3 3 2 3 5 5 6 7 8 8 9 8 4 359 357 355 355 354 351 350 350 343 330 317 304 292 280 268 259 251 245 236 226 219 213 207 201 198 199 203 207 210 209 204 200 198 199 201 200 197 195 195 191 186 181 180 179 175
144 139 136 57 346 340 349 10 30 38 40 35 16 6 6 7 5 8 11 7 358 356 2 5 6 7 6 5 3 2 4 7 9 9 9 10 11 12 11 7 3 1 359 357 357 356 353 354 356 352 339 322 305 285 264 247 237 230 224 218 212 206 202 199 196 196 199 204 205 201 197 195 194 196 197 196 192 187 184 181 177 173 170 169 167
148 51 353 342 337 336 349 3 16 34 41 30 13 6 8 8 4 6 8 4 356 355 1 6 10 10 8 6 4 3 5 8 10 9 9 9 10 11 11 9 7 5 3 1 1 1 359 358 360 -0 355 344 324 290 255 235 223 216 212 210 207 202 198 196 195 193 193 194 194 192 191 190 188 187 188 187 184 179 174 171 170 168 164 161 159
337 347 350 348 347 352 357 1 16 58 49 29 12 1 1 2 3 6 6 0 356 358 3 7 10 12 11 8 5 3 5 10 12 11 8 9 10 10 10 10 9 7 6 6 6 6 5 5 5 6 6 6 0 311 195 206 208 202 198 198 199 197 194 193 192 191 189 187 186 185 184 183 180 178 176 174 172 170 167 164 164 163 160 156 155
1 13 11 6 2 357 -0 25 71 78 52 26 11 3 2 1 3 7 7 1 357 2 8 11 12 13 12 10 9 6 7 11 14 14 11 9 10 11 10 10 10 10 9 9 11 12 12 12 13 16 22 30 49 118 151 167 180 185 186 187 188 188 187 186 184 184 183 181 180 179 177 176 173 170 167 165 165 164 162 160 160 158 154 152 154
50 39 25 16 2 350 3 63 81 69 50 38 29 23 18 13 11 13 12 7 3 5 11 16 18 16 12 11 11 11 10 12 16 18 16 12 12 13 12 11 12 14 13 12 13 15 17 21 26 33 44 65 94 126 142 149 158 168 174 176 177 177 176 175 174 174 173 171 170 169 167 166 166 164 162 161 161 159 158 157 157 155 154 155 158
60 47 45 48 41 32 57 84 78 64 58 54 41 31 25 18 14 13 9 6 5 7 12 19 21 18 14 13 13 14 13 13 16 20 20 17 14 15 15 14 14 16 18 18 18 19 23 34 46 54 66 85 104 122 134 140 147 154 160 163 164 164 164 163 162 162 162 161 160 159 159 159 160 159 158 159 159 157 155 154 154 152 152 155 159
78 61 56 55 53 56 71 80 73 68 68 58 39 33 36 35 33 30 23 15 11 10 15 22 22 19 16 15 15 16 16 15 17 21 23 22 19 17 18 19 19 20 23 25 25 26 34 48 58 65 77 92 106 118 128 135 141 146 149 152 153 153 154 155 155 156 157 157 155 155 155 156 156 156 155 156 156 153 150 150 151 151 152 155 158
96 91 86 73 62 58 62 69 76 81 79 64 41 36 39 43 46 46 43 39 29 17 15 21 23 20 16 15 15 17 18 17 19 22 25 25 23 22 23 25 25 25 28 31 32 34 41 52 61 70 82 94 105 116 124 130 136 141 144 148 149 148 148 150 151 153 155 154 153 152 152 152 152 152 150 150 150 148 147 149 153 155 156 157 157
102 99 98 94 89 80 72 76 94 105 98 68 45 36 32 36 40 39 42 48 46 32 22 23 26 23 18 15 15 18 20 20 20 23 26 28 28 26 26 29 32 32 33 36 38 41 44 49 57 69 84 95 103 112 120 126 131 135 138 142 143 143 143 145 147 150 152 153 152 151 151 150 149 149 148 148 149 148 148 150 153 154 154 154 153
115 110 103 98 99 102 91 87 97 111 114 68 38 31 30 34 34 28 26 34 43 42 34 31 30 28 22 17 16 19 21 23 23 25 27 28 30 30 30 32 35 38 40 41 43 47 49 52 56 67 82 93 101 108 114 119 125 130 133 135 138 139 142 145 148 150 151 152 152 152 152 150 149 149 149 150 150 149 149 150 151 150 149 149 148
108 114 103 81 79 116 121 98 96 103 97 61 31 23 23 26 22 16 13 16 24 29 27 22 23 26 26 22 21 23 25 25 25 27 28 27 29 32 33 34 36 40 44 47 49 50 51 54 57 63 73 83 92 103 111 116 120 124 127 130 134 137 142 147 149 151 152 153 153 153 153 151 150 150 151 150 149 149 148 147 145 144 144 143 143
75 77 72 59 54 56 48 25 41 85 72 38 19 11 11 11 8 6 7 9 13 16 16 13 13 17 22 24 27 30 30 28 25 26 27 27 28 31 34 37 38 41 46 52 56 58 60 63 65 68 73 79 85 95 107 115 119 121 123 126 131 136 141 145 147 149 152 153 154 154 153 151 149 148 147 147 146 145 143 141 139 140 141 142 143
63 62 63 59 54 51 46 37 34 42 42 24 9 359 359 -0 359 358 359 0 3 8 13 16 16 14 16 20 26 31 34 34 29 24 23 25 27 28 32 36 40 43 46 52 57 61 65 70 72 73 77 82 86 92 100 108 115 119 122 126 131 136 138 139 141 144 147 148 148 148 147 145 143 141 140 140 141 140 139 137 138 140 142 143 145
62 58 61 60 54 51 48 45 44 43 37 22 9 2 359 358 357 356 356 356 358 1 7 14 21 20 16 17 21 27 34 39 37 29 22 22 25 27 29 34 39 42 45 49 54 61 67 72 72 72 74 78 83 88 93 98 102 108 113 120 125 129 130 131 133 136 138 139 139 140 139 138 137 137 138 139 139 138 137 136 137 140 143 146 146